TimeEST,TemperatureF,Dew PointF,Humidity,Sea Level PressureIn,VisibilityMPH,Wind Direction,Wind SpeedMPH,Gust SpeedMPH,PrecipitationIn,Events,Conditions,WindDirDegrees,DateUTC
12:15 AM,55.4,55.4,100,30.28,7.0,Calm,Calm,-,N/A,,Clear,0,2012-02-29 05:15:00
12:35 AM,57.2,55.4,94,30.27,10.0,Calm,Calm,-,N/A,,Clear,0,2012-02-29 05:35:00
1:15 AM,55.4,55.4,100,30.27,10.0,Calm,Calm,-,N/A,,Overcast,0,2012-02-29 06:15:00
1:35 AM,55.4,55.4,100,30.27,7.0,Calm,Calm,-,N/A,,Overcast,0,2012-02-29 06:35:00
1:55 AM,55.4,55.4,100,30.26,7.0,Calm,Calm,-,N/A,,Overcast,0,2012-02-29 06:55:00
2:15 AM,55.4,55.4,100,30.25,7.0,Calm,Calm,-,N/A,,Overcast,0,2012-02-29 07:15:00
2:35 AM,57.2,57.2,100,30.23,10.0,SE,4.6,-,N/A,,Overcast,140,2012-02-29 07:35:00
2:55 AM,57.2,55.4,94,30.22,10.0,SSE,3.5,-,N/A,,Scattered Clouds,160,2012-02-29 07:55:00
3:15 AM,55.4,55.4,100,30.21,10.0,Calm,Calm,-,N/A,,Scattered Clouds,0,2012-02-29 08:15:00
3:35 AM,57.2,55.4,94,30.22,10.0,Calm,Calm,-,N/A,,Mostly Cloudy,0,2012-02-29 08:35:00
3:55 AM,55.4,55.4,100,30.22,10.0,Calm,Calm,-,N/A,,Mostly Cloudy,0,2012-02-29 08:55:00
4:15 AM,55.4,55.4,100,30.22,10.0,Calm,Calm,-,N/A,,Mostly Cloudy,0,2012-02-29 09:15:00
4:35 AM,57.2,55.4,94,30.22,10.0,Calm,Calm,-,N/A,,Overcast,0,2012-02-29 09:35:00
4:55 AM,57.2,55.4,94,30.23,10.0,Calm,Calm,-,N/A,,Overcast,0,2012-02-29 09:55:00
5:15 AM,57.2,55.4,94,30.23,10.0,Calm,Calm,-,N/A,,Overcast,0,2012-02-29 10:15:00
5:35 AM,57.2,57.2,100,30.23,0.8,Calm,Calm,-,N/A,,Overcast,0,2012-02-29 10:35:00
5:55 AM,57.2,57.2,100,30.23,0.8,South,4.6,-,N/A,,Overcast,190,2012-02-29 10:55:00
6:15 AM,57.2,57.2,100,30.24,1.0,SSW,3.5,-,N/A,,Overcast,200,2012-02-29 11:15:00
6:35 AM,57.2,57.2,100,30.24,0.8,SSW,3.5,-,N/A,,Overcast,210,2012-02-29 11:35:00
6:55 AM,57.2,57.2,100,30.22,0.2,SSW,4.6,-,N/A,Fog,Fog,200,2012-02-29 11:55:00
7:15 AM,57.2,57.2,100,30.22,0.2,SSW,3.5,-,N/A,Fog,Fog,210,2012-02-29 12:15:00
7:35 AM,59.0,59.0,100,30.23,0.2,SW,3.5,-,N/A,Fog,Fog,220,2012-02-29 12:35:00
7:55 AM,59.0,59.0,100,30.23,0.2,SW,4.6,-,N/A,Fog,Fog,220,2012-02-29 12:55:00
8:15 AM,59.0,59.0,100,30.23,0.2,SW,4.6,-,N/A,Fog,Fog,220,2012-02-29 13:15:00
8:35 AM,59.0,59.0,100,30.24,0.2,SW,3.5,-,N/A,Fog,Fog,220,2012-02-29 13:35:00
8:55 AM,59.0,59.0,100,30.23,1.5,WSW,6.9,-,N/A,,Overcast,240,2012-02-29 13:55:00
9:15 AM,60.8,60.8,100,30.23,4.0,SW,5.8,-,N/A,,Overcast,230,2012-02-29 14:15:00
9:35 AM,60.8,60.8,100,30.20,7.0,SSW,9.2,-,N/A,,Overcast,200,2012-02-29 14:35:00
9:55 AM,62.6,60.8,94,30.18,10.0,SSW,11.5,16.1,N/A,,Overcast,200,2012-02-29 14:55:00
10:15 AM,64.4,60.8,88,30.17,10.0,SSW,11.5,19.6,N/A,,Overcast,200,2012-02-29 15:15:00
10:55 AM,69.8,62.6,78,30.18,10.0,SW,12.7,19.6,N/A,,Mostly Cloudy,220,2012-02-29 15:55:00
11:15 AM,69.8,62.6,78,30.18,10.0,SW,12.7,20.7,N/A,,Overcast,230,2012-02-29 16:15:00
11:35 AM,69.8,62.6,78,30.18,10.0,SW,11.5,17.3,N/A,,Overcast,230,2012-02-29 16:35:00
11:55 AM,71.6,62.6,73,30.17,10.0,WSW,9.2,-,N/A,,Overcast,250,2012-02-29 16:55:00
12:15 PM,71.6,62.6,73,30.17,10.0,SW,11.5,17.3,N/A,,Overcast,230,2012-02-29 17:15:00
12:35 PM,71.6,62.6,73,30.17,10.0,WSW,8.1,-,N/A,,Overcast,240,2012-02-29 17:35:00
1:15 PM,71.6,62.6,73,30.14,10.0,SW,6.9,-,N/A,,Overcast,230,2012-02-29 18:15:00
1:35 PM,71.6,62.6,73,30.13,10.0,WSW,5.8,-,N/A,,Overcast,240,2012-02-29 18:35:00
1:55 PM,73.4,64.4,73,30.11,10.0,SSW,6.9,-,N/A,,Overcast,210,2012-02-29 18:55:00
2:15 PM,75.2,64.4,69,30.09,10.0,SSW,11.5,-,N/A,,Overcast,210,2012-02-29 19:15:00
2:35 PM,77.0,62.6,61,30.08,10.0,SW,13.8,21.9,N/A,,Overcast,220,2012-02-29 19:35:00
2:55 PM,77.0,62.6,61,30.08,10.0,SW,13.8,21.9,N/A,,Overcast,230,2012-02-29 19:55:00
3:15 PM,77.0,62.6,61,30.07,10.0,SW,9.2,-,N/A,,Overcast,220,2012-02-29 20:15:00
3:35 PM,77.0,62.6,61,30.07,10.0,SW,13.8,21.9,N/A,,Overcast,220,2012-02-29 20:35:00
3:55 PM,75.2,62.6,65,30.07,10.0,SSW,13.8,18.4,N/A,,Overcast,210,2012-02-29 20:55:00
4:15 PM,75.2,62.6,65,30.05,10.0,SW,11.5,17.3,N/A,,Overcast,230,2012-02-29 21:15:00
4:35 PM,77.0,62.6,61,30.04,10.0,WSW,10.4,17.3,N/A,,Scattered Clouds,240,2012-02-29 21:35:00
4:55 PM,75.2,62.6,65,30.04,10.0,SW,9.2,-,N/A,,Scattered Clouds,230,2012-02-29 21:55:00
5:15 PM,75.2,62.6,65,30.04,10.0,WSW,8.1,18.4,N/A,,Scattered Clouds,240,2012-02-29 22:15:00
5:35 PM,75.2,62.6,65,30.04,10.0,WSW,8.1,16.1,N/A,,Scattered Clouds,250,2012-02-29 22:35:00
5:55 PM,73.4,62.6,69,30.04,10.0,West,9.2,-,N/A,,Scattered Clouds,270,2012-02-29 22:55:00
6:15 PM,73.4,62.6,69,30.04,10.0,SW,6.9,-,N/A,,Clear,230,2012-02-29 23:15:00
6:35 PM,73.4,62.6,69,30.03,10.0,WSW,8.1,-,N/A,,Clear,240,2012-02-29 23:35:00
6:55 PM,71.6,62.6,73,30.02,10.0,SW,6.9,-,N/A,,Clear,230,2012-02-29 23:55:00
7:15 PM,71.6,62.6,73,30.02,10.0,WSW,6.9,-,N/A,,Clear,240,2012-03-01 00:15:00
7:35 PM,71.6,62.6,73,30.01,10.0,SW,6.9,-,N/A,,Clear,220,2012-03-01 00:35:00
7:55 PM,71.6,62.6,73,30.02,10.0,SW,5.8,-,N/A,,Clear,230,2012-03-01 00:55:00
8:15 PM,71.6,62.6,73,30.03,10.0,WSW,8.1,-,N/A,,Clear,240,2012-03-01 01:15:00
8:35 PM,69.8,62.6,78,30.04,10.0,WSW,6.9,-,N/A,,Clear,250,2012-03-01 01:35:00
8:55 PM,69.8,62.6,78,30.05,10.0,WSW,8.1,-,N/A,,Scattered Clouds,250,2012-03-01 01:55:00
9:15 PM,69.8,62.6,78,30.04,10.0,WSW,6.9,-,N/A,,Mostly Cloudy,250,2012-03-01 02:15:00
9:35 PM,69.8,62.6,78,30.05,10.0,WSW,6.9,-,N/A,,Overcast,240,2012-03-01 02:35:00
9:55 PM,69.8,62.6,78,30.04,10.0,SW,9.2,16.1,N/A,,Mostly Cloudy,220,2012-03-01 02:55:00
10:15 PM,69.8,62.6,78,30.04,10.0,SW,9.2,-,N/A,,Mostly Cloudy,230,2012-03-01 03:15:00
10:35 PM,69.8,62.6,78,30.02,10.0,SW,12.7,21.9,N/A,,Mostly Cloudy,220,2012-03-01 03:35:00
10:55 PM,69.8,62.6,78,30.02,10.0,SW,9.2,-,N/A,,Scattered Clouds,220,2012-03-01 03:55:00
11:15 PM,69.8,62.6,78,30.04,10.0,WSW,9.2,-,N/A,,Clear,250,2012-03-01 04:15:00
11:35 PM,69.8,62.6,78,30.04,10.0,WSW,10.4,-,N/A,,Clear,240,2012-03-01 04:35:00
11:55 PM,69.8,62.6,78,30.03,10.0,SW,6.9,-,N/A,,Clear,230,2012-03-01 04:55:00